Weather History for Bennington, VT

Change the Weather History Date:

Sunday, February 26, 2012

  Actual Average Record
Temperature  
Mean Temperature 25 °F 28 °F  
Max Temperature 33 °F 38 °F 20 °F (2014)
Min Temperature 17 °F 18 °F 4 °F (2014)
Degree Days  
Heating Degree Days 40 37  
Month to date heating degree days 833 1046  
Since 1 July heating degree days 3566 5177  
Cooling Degree Days 0 0  
Month to date cooling degree days 0 0  
Year to date cooling degree days 0 0  
Moisture  
Dew Point 7 °F    
Average Humidity 46    
Maximum Humidity 62    
Minimum Humidity 30    
Precipitation  
Precipitation 0.00 in 0.09 in 0.01 in (2014)
Month to date precipitation 0.68 2.05  
Year to date precipitation 2.41 4.80  
Sea Level Pressure  
Sea Level Pressure 30.31 in    
Wind  
Wind Speed 8 mph (West)    
Max Wind Speed 18 mph    
Max Gust Speed 31 mph    
Visibility 10 miles    
Events      
T = Trace of Precipitation, MM = Missing Value Source: NWS Daily Summary

Daily Weather History Graph

Daily Weather History Graph

Search for Another Location

Airport:

Trip Planner

Search our weather history database for the weather conditions in past years. The results will help you decide how hot, cold, wet, or windy it might be!

Date:

Astronomy

Feb. 26, 2012 Rise Set
Actual Time 6:34 AM EST 5:37 PM EST
Civil Twilight 6:06 AM EST 6:06 PM EST
Nautical Twilight 5:33 AM EST 6:39 PM EST
Astronomical Twilight 5:00 AM EST 7:12 PM EST
Moon 8:19 AM EST (2/26) 10:42 PM EST (2/26)
Length of Visible Light 12h 00m
Length of Day
11h 03m
Waxing Crescent, 20% of the Moon is Illuminated
Feb 26
Waxing Crescent
Feb 29
First Quarter
Mar 8
Full
Mar 14
Last Quarter
Mar 22
New

Hourly Weather History & Observations

Time (EST) Temp. Windchill Dew Point Humidity Pressure Visibility Wind Dir Wind Speed Gust Speed Precip Events Conditions
12:54 AM 23.0 °F 12.4 °F 9.0 °F 55% 29.98 in 10.0 mi WNW 10.4 mph 31.1 mph N/A   Clear
1:54 AM 21.9 °F 13.4 °F 9.0 °F 58% 30.03 in 10.0 mi WNW 6.9 mph 17.3 mph N/A   Clear
2:54 AM 21.0 °F 12.4 °F 10.0 °F 63% 30.09 in 10.0 mi West 6.9 mph 16.1 mph N/A   Scattered Clouds
3:54 AM 19.9 °F 8.6 °F 8.1 °F 60% 30.14 in 10.0 mi West 10.4 mph 19.6 mph N/A   Clear
4:54 AM 19.0 °F 8.2 °F 7.0 °F 59% 30.19 in 10.0 mi WNW 9.2 mph - N/A   Clear
5:54 AM 18.0 °F 8.7 °F 7.0 °F 62% 30.24 in 10.0 mi West 6.9 mph - N/A   Clear
7:54 AM 19.0 °F 6.8 °F 5.0 °F 54% 30.31 in 10.0 mi West 11.5 mph 20.7 mph N/A   Clear
9:54 AM 24.1 °F 13.7 °F 3.9 °F 42% 30.32 in 10.0 mi WNW 10.4 mph 18.4 mph N/A   Clear
10:54 AM 25.0 °F 14.2 °F 5.0 °F 43% 30.34 in 10.0 mi West 11.5 mph 18.4 mph N/A   Clear
11:54 AM 28.0 °F 17.5 °F 3.9 °F 36% 30.35 in 10.0 mi West 12.7 mph 19.6 mph N/A   Clear
12:54 PM 30.0 °F 20.0 °F 3.0 °F 32% 30.33 in 10.0 mi West 12.7 mph 19.6 mph N/A   Clear
1:54 PM 30.9 °F 21.7 °F 3.9 °F 32% 30.32 in 10.0 mi NW 11.5 mph 20.7 mph N/A   Clear
2:54 PM 32.0 °F 24.8 °F 5.0 °F 32% 30.35 in 10.0 mi WNW 8.1 mph 18.4 mph N/A   Clear
3:54 PM 32.0 °F 24.2 °F 6.1 °F 34% 30.37 in 10.0 mi West 9.2 mph 18.4 mph N/A   Clear
4:54 PM 30.0 °F 21.1 °F 6.1 °F 36% 30.38 in 10.0 mi WSW 10.4 mph - N/A   Clear
5:54 PM 28.0 °F 21.7 °F 7.0 °F 41% 30.40 in 10.0 mi Variable 5.8 mph - N/A   Clear
6:54 PM 27.0 °F 19.5 °F 8.1 °F 45% 30.41 in 10.0 mi SW 6.9 mph - N/A   Clear
7:54 PM 26.1 °F 19.4 °F 9.0 °F 49% 30.43 in 10.0 mi SW 5.8 mph - N/A   Clear
8:54 PM 26.1 °F 20.5 °F 9.0 °F 49% 30.44 in 10.0 mi WSW 4.6 mph - N/A   Clear
9:54 PM 24.1 °F 19.7 °F 10.0 °F 55% 30.44 in 10.0 mi SW 3.5 mph - N/A   Clear
10:54 PM 21.9 °F - 10.9 °F 63% 30.43 in 10.0 mi Calm Calm - N/A   Clear
11:54 PM 19.0 °F - 12.0 °F 74% 30.43 in 10.0 mi Calm Calm - N/A   Clear